Powrót do katalogu

STARLINK-37714

AktywnyŁącznośćVLEO
NORAD 100040·PAYLOAD·🇺🇸 United States

Wystrzelony Jul 14, 2026 z Cape Canaveral Space Force Station

Loading…

Następne Przeloty (najbliższe 24 godziny)

TLE

ŚwieżeSource: Space-Track

Epoka: Sep 14, 2026, 08:59 UTC

1 A0040U 26161N   26257.37453458  .00010380  00000-0  30799-3 0  9994
2 A0040  53.1607  26.0941 0001024  78.1305 281.9812 15.35406046  9678

Śledź STARLINK-37714 w czasie rzeczywistym z AllMySat

Download on the App Store